Time,TemperatureF,DewpointF,PressureIn,WindDirection,WindDirectionDegrees,WindSpeedMPH,WindSpeedGustMPH,Humidity,HourlyPrecipIn,Conditions,Clouds,dailyrainin,SoftwareType,DateUTC
2013-09-15 00:13:00,54.0,51.0,30.02,NNW,347,0.0,-999.0,90,-99.99,,,-99.99,,2013-09-15 05:13:00,
2013-09-15 00:22:00,53.0,50.0,30.02,NNW,347,0.0,-999.0,90,-99.99,,,-99.99,,2013-09-15 05:22:00,
2013-09-15 00:42:00,53.0,50.0,30.02,NNW,347,0.0,-999.0,91,-99.99,,,-99.99,,2013-09-15 05:42:00,
2013-09-15 00:52:00,53.0,50.0,30.01,NNW,347,0.0,-999.0,91,-99.99,,,-99.99,,2013-09-15 05:52:00,
2013-09-15 01:12:00,52.0,49.0,30.02,NNW,347,0.0,-999.0,90,-99.99,,,-99.99,,2013-09-15 06:12:00,
2013-09-15 01:21:00,52.0,49.0,30.01,NNW,347,0.0,-999.0,91,-99.99,,,-99.99,,2013-09-15 06:21:00,
2013-09-15 01:52:00,52.0,50.0,30.01,NNW,347,0.0,-999.0,92,-99.99,,,-99.99,,2013-09-15 06:52:00,
2013-09-15 02:11:00,51.0,49.0,30.01,NNW,347,0.0,-999.0,92,-99.99,,,-99.99,,2013-09-15 07:11:00,
2013-09-15 02:22:00,51.0,49.0,30.01,NNW,347,0.0,-999.0,92,-99.99,,,-99.99,,2013-09-15 07:22:00,
2013-09-15 02:52:00,50.0,48.0,30.00,NNW,347,0.0,-999.0,92,-99.99,,,-99.99,,2013-09-15 07:52:00,
2013-09-15 03:11:00,50.0,48.0,30.00,NNW,347,0.0,-999.0,92,-99.99,,,-99.99,,2013-09-15 08:11:00,
2013-09-15 03:22:00,50.0,48.0,30.00,NNW,347,0.0,-999.0,92,-99.99,,,-99.99,,2013-09-15 08:22:00,
2013-09-15 03:52:00,49.0,47.0,30.01,NNW,347,0.0,-999.0,92,-99.99,,,-99.99,,2013-09-15 08:52:00,
2013-09-15 04:12:00,49.0,47.0,30.01,NNW,347,0.0,-999.0,93,-99.99,,,-99.99,,2013-09-15 09:12:00,
2013-09-15 04:22:00,48.0,46.0,30.01,NNW,347,0.0,-999.0,93,-99.99,,,-99.99,,2013-09-15 09:22:00,
2013-09-15 04:53:00,48.0,46.0,30.01,NNW,347,0.0,-999.0,93,-99.99,,,-99.99,,2013-09-15 09:53:00,
2013-09-15 05:13:00,48.0,46.0,30.01,NNW,347,0.0,-999.0,93,-99.99,,,-99.99,,2013-09-15 10:13:00,
2013-09-15 05:23:00,47.0,45.0,30.01,NNW,347,0.0,-999.0,93,-99.99,,,-99.99,,2013-09-15 10:23:00,
2013-09-15 05:52:00,47.0,45.0,30.02,NNW,347,0.0,-999.0,93,-99.99,,,-99.99,,2013-09-15 10:52:00,
2013-09-15 06:22:00,47.0,45.0,30.03,NNW,347,0.0,-999.0,93,-99.99,,,-99.99,,2013-09-15 11:22:00,
2013-09-15 06:52:00,46.0,44.0,30.03,NNW,347,0.0,-999.0,94,-99.99,,,-99.99,,2013-09-15 11:52:00,
2013-09-15 07:12:00,46.0,44.0,30.03,NNW,347,0.0,-999.0,93,-99.99,,,-99.99,,2013-09-15 12:12:00,
2013-09-15 07:21:00,46.0,44.0,30.03,NNW,347,0.0,-999.0,93,-99.99,,,-99.99,,2013-09-15 12:21:00,
2013-09-15 07:52:00,46.0,44.0,30.04,NNW,347,0.0,-999.0,94,-99.99,,,-99.99,,2013-09-15 12:52:00,
2013-09-15 08:11:00,47.0,46.0,30.05,NNW,347,0.0,-999.0,95,-99.99,,,-99.99,,2013-09-15 13:11:00,
2013-09-15 08:21:00,49.0,48.0,30.04,NNW,347,0.0,-999.0,95,-99.99,,,-99.99,,2013-09-15 13:21:00,
2013-09-15 08:52:00,52.0,50.0,30.05,WSW,252,0.0,-999.0,93,-99.99,,,-99.99,,2013-09-15 13:52:00,
2013-09-15 09:22:00,56.0,52.0,30.05,SW,232,0.0,-999.0,86,-99.99,,,-99.99,,2013-09-15 14:22:00,
2013-09-15 14:22:00,83.0,59.0,30.00,ENE,63,1.0,-999.0,45,-99.99,,,-99.99,,2013-09-15 19:22:00,
2013-09-15 14:52:00,83.0,58.0,29.98,ENE,57,1.0,-999.0,43,-99.99,,,-99.99,,2013-09-15 19:52:00,
2013-09-15 15:11:00,84.0,60.0,29.98,East,92,0.0,-999.0,45,-99.99,,,-99.99,,2013-09-15 20:11:00,
2013-09-15 15:22:00,85.0,61.0,29.98,East,82,0.0,-999.0,45,-99.99,,,-99.99,,2013-09-15 20:22:00,
2013-09-15 15:53:00,85.0,60.0,29.98,ENE,78,1.0,-999.0,43,-99.99,,,-99.99,,2013-09-15 20:53:00,
2013-09-15 16:11:00,85.0,60.0,29.98,East,91,1.0,-999.0,43,-99.99,,,-99.99,,2013-09-15 21:11:00,
2013-09-15 16:21:00,85.0,61.0,29.97,East,80,0.0,-999.0,44,-99.99,,,-99.99,,2013-09-15 21:21:00,
2013-09-15 16:44:00,85.0,61.0,29.97,East,81,1.0,-999.0,44,-99.99,,,-99.99,,2013-09-15 21:44:00,
2013-09-15 16:54:00,85.0,62.0,29.97,ENE,78,0.0,-999.0,46,-99.99,,,-99.99,,2013-09-15 21:54:00,
2013-09-15 17:14:00,85.0,63.0,29.97,ENE,78,0.0,-999.0,48,-99.99,,,-99.99,,2013-09-15 22:14:00,
2013-09-15 17:23:00,84.0,64.0,29.97,ENE,78,0.0,-999.0,51,-99.99,,,-99.99,,2013-09-15 22:23:00,
2013-09-15 17:53:00,83.0,65.0,29.97,ENE,78,0.0,-999.0,55,-99.99,,,-99.99,,2013-09-15 22:53:00,
2013-09-15 18:12:00,83.0,66.0,29.97,ENE,76,0.0,-999.0,57,-99.99,,,-99.99,,2013-09-15 23:12:00,
2013-09-15 18:22:00,83.0,65.0,29.97,ENE,69,0.0,-999.0,54,-99.99,,,-99.99,,2013-09-15 23:22:00,
2013-09-15 18:52:00,81.0,65.0,29.97,East,96,0.0,-999.0,59,-99.99,,,-99.99,,2013-09-15 23:52:00,
2013-09-15 19:11:00,80.0,66.0,29.97,East,80,0.0,-999.0,63,-99.99,,,-99.99,,2013-09-16 00:11:00,
2013-09-15 19:22:00,78.0,66.0,29.97,East,80,0.0,-999.0,67,-99.99,,,-99.99,,2013-09-16 00:22:00,
2013-09-15 19:42:00,77.0,66.0,29.97,East,80,0.0,-999.0,70,-99.99,,,-99.99,,2013-09-16 00:42:00,
2013-09-15 19:52:00,75.0,66.0,29.97,East,80,0.0,-999.0,74,-99.99,,,-99.99,,2013-09-16 00:52:00,
2013-09-15 20:12:00,74.0,66.0,29.97,East,80,0.0,-999.0,77,-99.99,,,-99.99,,2013-09-16 01:12:00,
2013-09-15 20:52:00,71.0,65.0,29.98,East,80,0.0,-999.0,82,-99.99,,,-99.99,,2013-09-16 01:52:00,
2013-09-15 21:12:00,70.0,65.0,30.00,East,80,0.0,-999.0,84,-99.99,,,-99.99,,2013-09-16 02:12:00,
2013-09-15 21:22:00,70.0,65.0,30.00,East,80,0.0,-999.0,84,-99.99,,,-99.99,,2013-09-16 02:22:00,
2013-09-15 21:42:00,69.0,64.0,30.00,East,80,0.0,-999.0,85,-99.99,,,-99.99,,2013-09-16 02:42:00,
2013-09-15 21:52:00,69.0,64.0,30.00,East,80,0.0,-999.0,85,-99.99,,,-99.99,,2013-09-16 02:52:00,
2013-09-15 22:11:00,68.0,64.0,30.00,East,80,0.0,-999.0,86,-99.99,,,-99.99,,2013-09-16 03:11:00,
2013-09-15 22:22:00,68.0,64.0,30.01,East,80,0.0,-999.0,86,-99.99,,,-99.99,,2013-09-16 03:22:00,
2013-09-15 22:54:00,67.0,63.0,30.01,East,80,0.0,-999.0,87,-99.99,,,-99.99,,2013-09-16 03:54:00,
2013-09-15 23:13:00,67.0,63.0,30.01,East,80,0.0,-999.0,87,-99.99,,,-99.99,,2013-09-16 04:13:00,
2013-09-15 23:24:00,66.0,62.0,30.01,East,80,0.0,-999.0,88,-99.99,,,-99.99,,2013-09-16 04:24:00,
2013-09-15 23:54:00,66.0,63.0,30.01,East,80,0.0,-999.0,90,-99.99,,,-99.99,,2013-09-16 04:54:00,